Language: 


Des rapports , des résumés tant et plus, au choix de chacun....


Données statistiques de la station
Quotidien Rapport Novembre 13, 2017 Unités:  Métrique    Anglais   les deux
« Précédent Jour
Suivant Jour »
Quotidien Hebdomadaire Mensuel Annuel Actuel
  Haut: Bas: Moyen:
Température: 10.9 °C 0.0 °C 6.9 °C
Pt de rosée: 9.0 °C 5.0 °C 6.3 °C
Humidité: 98 % 0 % 94 %
Vitesse du vent: 28.0 km/h 0.0 km/h 6.3 km/h
Rafales: 40.4 km/h - -
Vent:- - WNW
Pression: 1024.9 hPa 0.0 hPa -
Précipitation: 10.4 mm    
Historical Graphs
 
 
Données statistiques pour Novembre 13, 2017
Heure Température Point de rosée Pression Vent Vitesse du vent Refales Humidité Pluie (taux horaire)
00:03 5.8 °C 6.0 °C 1014.1 hPa NNW 2.1 km/h 15.4 km/h 97 % 1.3 mm
00:08 5.8 °C 6.0 °C 1014.1 hPa NNE 6.4 km/h 15.4 km/h 97 % 0.8 mm
00:13 5.8 °C 6.0 °C 1014.1 hPa NNW 7.6 km/h 9.7 km/h 97 % 0.8 mm
00:18 5.9 °C 6.0 °C 1014.1 hPa North 10.1 km/h 10.1 km/h 97 % 0.5 mm
00:23 6.1 °C 6.0 °C 1014.1 hPa NNW 7.6 km/h 14.0 km/h 97 % 0.3 mm
00:28 6.1 °C 6.0 °C 1014.1 hPa NNW 8.7 km/h 14.0 km/h 97 % 0.3 mm
00:33 6.1 °C 6.0 °C 1014.1 hPa WNW 8.7 km/h 14.0 km/h 97 % 0.3 mm
00:38 6.1 °C 6.0 °C 1014.1 hPa NNW 3.2 km/h 8.7 km/h 97 % 0.5 mm
00:43 6.0 °C 6.0 °C 1014.1 hPa NW 3.2 km/h 8.7 km/h 97 % 0.5 mm
00:48 6.2 °C 6.0 °C 1014.1 hPa North 5.0 km/h 10.1 km/h 97 % 0.5 mm
00:53 6.1 °C 6.0 °C 1014.1 hPa WSW 5.5 km/h 10.1 km/h 97 % 0.5 mm
00:58 6.1 °C 6.0 °C 1014.1 hPa NNW 3.2 km/h 8.7 km/h 97 % 0.5 mm
01:01 6.2 °C 6.0 °C 1014.1 hPa NNW 3.2 km/h 8.7 km/h 98 % 0.5 mm
01:06 6.5 °C 7.0 °C 1014.1 hPa North 9.0 km/h 9.0 km/h 98 % 0.5 mm
01:11 6.7 °C 7.0 °C 1015.1 hPa WNW 20.1 km/h 20.1 km/h 98 % 0.5 mm
01:16 6.7 °C 6.0 °C 1015.1 hPa North 12.2 km/h 20.1 km/h 97 % 0.3 mm
01:21 6.7 °C 6.0 °C 1015.1 hPa NNE 11.9 km/h 20.1 km/h 93 % 0.3 mm
01:26 6.7 °C 6.0 °C 1015.1 hPa WNW 9.3 km/h 20.1 km/h 92 % 0.5 mm
01:31 6.5 °C 6.0 °C 1015.1 hPa West 5.8 km/h 20.1 km/h 93 % 0.5 mm
01:36 6.5 °C 6.0 °C 1015.1 hPa NW 5.8 km/h 9.3 km/h 94 % 0.3 mm
01:41 6.5 °C 6.0 °C 1015.1 hPa Calm   6.4 km/h 94 % 0.3 mm
01:46 6.5 °C 6.0 °C 1015.1 hPa North 4.7 km/h 6.4 km/h 96 % 0.3 mm
01:51 6.6 °C 6.0 °C 1015.1 hPa NNW 9.3 km/h 9.7 km/h 97 % 0.3 mm
01:56 6.8 °C 7.0 °C 1016.1 hPa WNW 12.6 km/h 14.0 km/h 98 % 0.3 mm
02:01 6.8 °C 7.0 °C 1016.1 hPa NNW 11.9 km/h 14.0 km/h 98 % 0.3 mm
02:06 6.8 °C 7.0 °C 1016.1 hPa NNW 9.7 km/h 12.6 km/h 98 % 0.3 mm
02:11 7.0 °C 7.0 °C 1015.1 hPa NNW 16.9 km/h 18.0 km/h 98 % 0.3 mm
02:16 7.1 °C 7.0 °C 1015.1 hPa NNW 8.7 km/h 18.0 km/h 98 % 0.3 mm
02:21 7.1 °C 7.0 °C 1015.1 hPa NNE 13.0 km/h 20.6 km/h 98 % 0.3 mm
02:26 7.1 °C 7.0 °C 1015.1 hPa North 5.5 km/h 20.6 km/h 98 % 0.0 mm
02:31 7.0 °C 7.0 °C 1015.1 hPa NNW 7.9 km/h 13.0 km/h 98 % 0.0 mm
02:36 6.8 °C 6.0 °C 1015.1 hPa NW 2.1 km/h 11.9 km/h 97 % 0.0 mm
02:41 6.8 °C 6.0 °C 1015.1 hPa Calm   10.5 km/h 97 % 0.0 mm
02:46 6.8 °C 7.0 °C 1015.1 hPa NNE 5.5 km/h 10.5 km/h 98 % 0.0 mm
02:51 6.9 °C 7.0 °C 1015.1 hPa NNW 8.7 km/h 11.9 km/h 98 % 0.0 mm
02:56 6.8 °C 7.0 °C 1015.1 hPa NNW 9.7 km/h 12.2 km/h 98 % 0.0 mm
03:01 0.0 °C 6.0 °C 0.0 hPa Calm     0 % 0.0 mm
03:06 6.5 °C 6.0 °C 1015.1 hPa North 12.2 km/h 18.0 km/h 94 % 0.0 mm
03:11 6.5 °C 6.0 °C 1016.1 hPa North 13.7 km/h 18.0 km/h 94 % 0.0 mm
03:16 6.4 °C 6.0 °C 1016.1 hPa NW 12.2 km/h 16.3 km/h 94 % 0.0 mm
03:21 6.3 °C 6.0 °C 1016.1 hPa NW 9.7 km/h 16.3 km/h 95 % 2.3 mm
03:26 6.3 °C 6.0 °C 1015.1 hPa WNW 16.3 km/h 16.3 km/h 96 % 2.3 mm
03:31 6.3 °C 6.0 °C 1015.1 hPa North 6.1 km/h 16.3 km/h 97 % 2.3 mm
03:36 6.3 °C 6.0 °C 1015.1 hPa North 10.1 km/h 16.3 km/h 97 % 2.3 mm
03:41 6.3 °C 6.0 °C 1016.1 hPa West 10.5 km/h 13.0 km/h 97 % 2.3 mm
03:46 6.3 °C 6.0 °C 1016.1 hPa WNW 14.0 km/h 14.0 km/h 97 % 2.3 mm
03:52 6.1 °C 6.0 °C 1016.1 hPa NNW 8.7 km/h 14.0 km/h 97 % 2.3 mm
03:57 6.2 °C 6.0 °C 1016.1 hPa North 9.3 km/h 13.7 km/h 97 % 2.3 mm
04:02 6.3 °C 6.0 °C 1016.1 hPa West 8.7 km/h 13.7 km/h 98 % 2.0 mm
04:07 6.3 °C 6.0 °C 1016.1 hPa NNW 7.9 km/h 11.9 km/h 98 % 2.0 mm
04:13 6.3 °C 6.0 °C 1016.8 hPa North 13.7 km/h 13.7 km/h 98 % 2.0 mm
04:18 6.4 °C 6.0 °C 1016.8 hPa NNE 8.7 km/h 21.2 km/h 98 % 0.0 mm
04:21 6.5 °C 7.0 °C 1016.8 hPa North 9.0 km/h 21.2 km/h 98 % 0.0 mm
04:22 6.5 °C 7.0 °C 1016.8 hPa North 9.0 km/h 21.2 km/h 98 % 0.0 mm
04:24 6.5 °C 7.0 °C 1016.8 hPa NNE 6.9 km/h 14.8 km/h 98 % 0.0 mm
04:28 6.6 °C 7.0 °C 1016.1 hPa North 12.6 km/h 14.8 km/h 98 % 0.0 mm
04:33 6.5 °C 7.0 °C 1016.1 hPa NNW 20.6 km/h 20.6 km/h 98 % 0.0 mm
04:38 6.4 °C 6.0 °C 1016.1 hPa ENE 9.7 km/h 20.6 km/h 98 % 0.0 mm
04:43 6.3 °C 6.0 °C 1018.2 hPa NNE 13.7 km/h 20.6 km/h 98 % 0.0 mm
04:48 6.3 °C 6.0 °C 1018.2 hPa North 6.9 km/h 13.7 km/h 98 % 0.0 mm
04:53 6.2 °C 6.0 °C 1018.2 hPa North 6.9 km/h 13.7 km/h 98 % 0.0 mm
04:58 6.1 °C 6.0 °C 1018.2 hPa NNW 3.2 km/h 6.9 km/h 98 % 0.0 mm
05:03 6.0 °C 6.0 °C 1018.2 hPa WNW 2.6 km/h 6.9 km/h 98 % 0.0 mm
05:08 5.8 °C 6.0 °C 1018.2 hPa Calm   5.8 km/h 98 % 0.0 mm
05:13 5.7 °C 6.0 °C 1016.8 hPa WNW 4.3 km/h 5.0 km/h 98 % 0.0 mm
05:18 5.6 °C 6.0 °C 1016.8 hPa WNW 5.5 km/h 8.7 km/h 98 % 0.0 mm
05:23 5.9 °C 6.0 °C 1016.8 hPa NNE 9.0 km/h 9.0 km/h 98 % 0.0 mm
05:28 6.1 °C 6.0 °C 1016.1 hPa North 6.1 km/h 9.0 km/h 98 % 0.0 mm
05:33 6.3 °C 6.0 °C 1016.1 hPa Calm   9.0 km/h 98 % 0.0 mm
05:38 6.4 °C 6.0 °C 1016.1 hPa North 7.9 km/h 7.9 km/h 98 % 0.0 mm
05:43 6.4 °C 6.0 °C 1016.8 hPa NNW 1.8 km/h 7.9 km/h 98 % 0.0 mm
05:48 6.5 °C 7.0 °C 1016.8 hPa WNW 13.0 km/h 13.0 km/h 98 % 0.0 mm
05:53 6.7 °C 7.0 °C 1016.8 hPa NW 7.6 km/h 13.0 km/h 98 % 0.0 mm
05:58 6.7 °C 7.0 °C 1018.2 hPa North 13.7 km/h 13.7 km/h 98 % 0.0 mm
06:03 6.6 °C 7.0 °C 1018.2 hPa NNE 5.0 km/h 13.7 km/h 98 % 0.0 mm
06:08 6.4 °C 6.0 °C 1018.2 hPa NNW 8.7 km/h 14.3 km/h 98 % 0.0 mm
06:13 6.3 °C 6.0 °C 1016.8 hPa WNW 6.1 km/h 14.3 km/h 98 % 0.0 mm
06:18 6.4 °C 6.0 °C 1016.8 hPa NNW 9.3 km/h 13.7 km/h 98 % 0.0 mm
06:23 6.5 °C 7.0 °C 1016.8 hPa NNW 9.3 km/h 13.7 km/h 98 % 0.0 mm
06:28 6.5 °C 7.0 °C 1018.2 hPa NNW 9.0 km/h 9.3 km/h 98 % 0.0 mm
06:33 6.4 °C 6.0 °C 1018.2 hPa NNW 4.0 km/h 9.3 km/h 98 % 0.0 mm
06:38 6.4 °C 6.0 °C 1018.2 hPa NE 9.7 km/h 9.7 km/h 98 % 0.0 mm
06:43 6.4 °C 6.0 °C 1018.2 hPa North 5.0 km/h 9.7 km/h 98 % 0.0 mm
06:48 6.4 °C 6.0 °C 1018.2 hPa WNW 9.0 km/h 9.7 km/h 98 % 0.0 mm
06:53 6.5 °C 7.0 °C 1018.2 hPa NNE 6.9 km/h 9.0 km/h 98 % 0.0 mm
06:58 6.5 °C 7.0 °C 1018.2 hPa WNW 3.5 km/h 10.1 km/h 98 % 0.0 mm
07:03 6.7 °C 7.0 °C 1018.2 hPa NNW 16.3 km/h 16.3 km/h 98 % 0.0 mm
07:08 6.8 °C 7.0 °C 1018.2 hPa NNW 10.1 km/h 40.4 km/h 98 % 0.0 mm
07:13 6.7 °C 7.0 °C 1018.8 hPa North 10.1 km/h 40.4 km/h 98 % 0.0 mm
07:18 6.5 °C 7.0 °C 1018.8 hPa NNW 5.0 km/h 16.6 km/h 98 % 0.0 mm
07:20 6.5 °C 7.0 °C 1018.8 hPa NNW 11.6 km/h 16.6 km/h 98 % 0.0 mm
07:25 6.4 °C 6.0 °C 1018.8 hPa NNW 8.7 km/h 11.6 km/h 97 % 3.3 mm
07:30 6.4 °C 6.0 °C 1018.8 hPa North 6.4 km/h 11.6 km/h 97 % 3.3 mm
07:35 6.5 °C 6.0 °C 1018.8 hPa West 5.8 km/h 17.2 km/h 97 % 3.3 mm
07:40 6.5 °C 6.0 °C 1018.8 hPa NNE 6.4 km/h 17.2 km/h 97 % 3.3 mm
07:45 6.5 °C 7.0 °C 1018.8 hPa West 9.0 km/h 10.8 km/h 98 % 3.3 mm
07:50 6.6 °C 7.0 °C 1018.8 hPa WNW 15.1 km/h 15.1 km/h 98 % 4.1 mm
07:56 6.5 °C 7.0 °C 1018.8 hPa West 3.2 km/h 15.1 km/h 98 % 4.1 mm
08:01 6.4 °C 6.0 °C 1018.8 hPa WNW 3.2 km/h 15.1 km/h 98 % 4.1 mm
08:06 6.4 °C 6.0 °C 1018.8 hPa WNW 2.1 km/h 6.9 km/h 98 % 4.1 mm
08:11 6.4 °C 6.0 °C 1018.8 hPa NW 1.4 km/h 10.5 km/h 98 % 4.1 mm
08:16 6.6 °C 7.0 °C 1018.8 hPa North 12.2 km/h 12.2 km/h 98 % 4.1 mm
08:21 6.7 °C 7.0 °C 1018.8 hPa NNW 11.6 km/h 16.6 km/h 98 % 4.1 mm
08:26 6.8 °C 7.0 °C 1018.8 hPa WNW 5.8 km/h 16.6 km/h 98 % 0.5 mm
08:31 6.7 °C 7.0 °C 1018.8 hPa North 13.7 km/h 16.9 km/h 98 % 0.5 mm
08:36 6.5 °C 7.0 °C 1018.8 hPa North 6.4 km/h 16.9 km/h 98 % 1.3 mm
08:41 6.4 °C 6.0 °C 1018.8 hPa NW 8.7 km/h 12.2 km/h 98 % 1.3 mm
08:46 6.3 °C 6.0 °C 1018.8 hPa Calm   11.9 km/h 97 % 0.5 mm
08:51 6.4 °C 6.0 °C 1018.8 hPa NNE 5.5 km/h 9.3 km/h 98 % 0.5 mm
08:56 6.4 °C 6.0 °C 1018.8 hPa NNW 2.6 km/h 5.8 km/h 98 % 0.5 mm
09:01 6.4 °C 6.0 °C 1018.8 hPa NNE 5.5 km/h 9.3 km/h 98 % 0.5 mm
09:06 6.5 °C 7.0 °C 1018.8 hPa NNW 3.2 km/h 9.3 km/h 98 % 0.5 mm
09:11 6.6 °C 7.0 °C 1020.9 hPa NNW 9.0 km/h 9.0 km/h 98 % 0.5 mm
09:16 6.7 °C 7.0 °C 1020.9 hPa NNW 12.2 km/h 12.2 km/h 98 % 0.5 mm
09:21 7.0 °C 7.0 °C 1020.9 hPa Calm   12.2 km/h 98 % 0.5 mm
09:26 7.1 °C 7.0 °C 1020.9 hPa NNE 5.5 km/h 7.9 km/h 98 % 0.5 mm
09:31 6.9 °C 7.0 °C 1020.9 hPa NNE 5.0 km/h 15.4 km/h 97 % 0.3 mm
09:36 6.8 °C 6.0 °C 1020.9 hPa NW 6.1 km/h 15.4 km/h 96 % 0.0 mm
09:41 7.1 °C 7.0 °C 1019.9 hPa WNW 5.8 km/h 13.0 km/h 96 % 0.0 mm
09:46 7.1 °C 7.0 °C 1019.9 hPa North 28.0 km/h 28.0 km/h 96 % 0.3 mm
09:51 6.8 °C 6.0 °C 1019.9 hPa NNE 3.2 km/h 28.0 km/h 96 % 0.3 mm
09:56 6.6 °C 6.0 °C 1020.9 hPa NNE 7.9 km/h 24.8 km/h 95 % 0.3 mm
10:01 6.5 °C 6.0 °C 1020.9 hPa North 9.7 km/h 16.3 km/h 95 % 0.3 mm
10:06 6.7 °C 6.0 °C 1020.9 hPa WNW 8.7 km/h 12.2 km/h 95 % 0.3 mm
10:11 6.8 °C 6.0 °C 1020.9 hPa NW 5.0 km/h 17.2 km/h 96 % 0.3 mm
10:16 7.1 °C 7.0 °C 1020.9 hPa WSW 6.4 km/h 19.5 km/h 96 % 0.3 mm
10:21 7.2 °C 7.0 °C 1020.9 hPa WNW 10.1 km/h 19.5 km/h 96 % 0.3 mm
10:26 7.5 °C 7.0 °C 1020.9 hPa WNW 4.3 km/h 12.6 km/h 97 % 0.3 mm
10:31 7.4 °C 7.0 °C 1020.9 hPa NW 6.1 km/h 12.6 km/h 96 % 0.3 mm
10:36 7.4 °C 7.0 °C 1020.9 hPa North 13.0 km/h 13.0 km/h 95 % 0.3 mm
10:41 7.7 °C 7.0 °C 1020.9 hPa North 11.9 km/h 13.0 km/h 94 % 0.3 mm
10:46 7.9 °C 7.0 °C 1020.9 hPa NNW 4.0 km/h 13.0 km/h 94 % 0.0 mm
10:51 8.2 °C 7.0 °C 1020.9 hPa NNE 10.1 km/h 11.9 km/h 94 % 0.3 mm
10:56 8.4 °C 8.0 °C 1020.9 hPa WNW 6.1 km/h 10.1 km/h 94 % 0.3 mm
11:01 8.5 °C 8.0 °C 1020.9 hPa NNW 6.9 km/h 17.2 km/h 94 % 0.3 mm
11:06 8.7 °C 8.0 °C 1020.9 hPa NW 5.0 km/h 17.2 km/h 94 % 0.3 mm
11:16 9.3 °C 9.0 °C 1020.9 hPa NNW 15.4 km/h 15.4 km/h 94 % 0.3 mm
11:21 9.4 °C 8.0 °C 1020.9 hPa NNE 13.0 km/h 15.4 km/h 92 % 0.3 mm
11:26 9.2 °C 8.0 °C 1020.9 hPa NNW 15.4 km/h 16.6 km/h 88 % 0.3 mm
11:31 8.9 °C 7.0 °C 1020.9 hPa North 16.3 km/h 19.5 km/h 86 % 0.3 mm
11:36 8.7 °C 7.0 °C 1020.9 hPa NNW 7.9 km/h 19.8 km/h 86 % 0.3 mm
11:41 8.5 °C 7.0 °C 1020.9 hPa NW 13.7 km/h 19.8 km/h 85 % 0.3 mm
11:46 8.5 °C 7.0 °C 1020.9 hPa North 13.0 km/h 17.2 km/h 85 % 0.3 mm
11:51 8.5 °C 7.0 °C 1020.9 hPa NNW 5.0 km/h 17.2 km/h 87 % 0.0 mm
11:56 8.7 °C 7.0 °C 1020.9 hPa North 6.1 km/h 14.0 km/h 87 % 0.0 mm
12:01 9.0 °C 7.0 °C 1020.9 hPa North 7.9 km/h 14.0 km/h 88 % 0.0 mm
12:06 9.4 °C 8.0 °C 1020.9 hPa North 6.9 km/h 10.1 km/h 88 % 0.0 mm
12:11 9.9 °C 8.0 °C 1020.9 hPa North 12.2 km/h 12.2 km/h 87 % 0.0 mm
12:16 9.7 °C 7.0 °C 1020.9 hPa NW 12.6 km/h 15.4 km/h 84 % 0.0 mm
12:21 10.0 °C 7.0 °C 1020.9 hPa NNW 17.2 km/h 17.2 km/h 83 % 0.0 mm
12:26 10.3 °C 8.0 °C 1020.9 hPa North 6.9 km/h 17.2 km/h 83 % 0.0 mm
12:32 10.2 °C 8.0 °C 1020.9 hPa North 6.4 km/h 12.6 km/h 83 % 0.0 mm
12:37 9.8 °C 7.0 °C 1020.9 hPa NW 8.7 km/h 17.7 km/h 82 % 0.0 mm
12:42 9.6 °C 7.0 °C 1020.9 hPa North 6.9 km/h 17.7 km/h 80 % 0.0 mm
12:47 9.8 °C 7.0 °C 1020.9 hPa Calm   12.6 km/h 83 % 0.0 mm
12:52 10.4 °C 8.0 °C 1020.9 hPa NW 11.1 km/h 11.1 km/h 83 % 0.0 mm
12:57 10.7 °C 8.0 °C 1020.9 hPa NNW 8.7 km/h 11.1 km/h 83 % 0.0 mm
13:02 10.9 °C 8.0 °C 1020.9 hPa ENE 4.0 km/h 11.1 km/h 82 % 0.0 mm
13:07 10.7 °C 8.0 °C 1020.9 hPa WSW 5.5 km/h 12.6 km/h 82 % 0.0 mm
13:12 10.2 °C 8.0 °C 1020.9 hPa NW 5.8 km/h 12.6 km/h 83 % 0.0 mm
13:17 9.8 °C 7.0 °C 1020.9 hPa North 6.1 km/h 12.2 km/h 84 % 0.0 mm
13:22 9.3 °C 7.0 °C 1020.9 hPa NE 13.0 km/h 13.0 km/h 83 % 0.0 mm
13:27 8.8 °C 6.0 °C 1021.9 hPa NNE 11.6 km/h 13.0 km/h 82 % 0.0 mm
13:28 8.6 °C 6.0 °C 1021.9 hPa North 11.6 km/h 13.0 km/h 83 % 0.0 mm
13:33 8.4 °C 6.0 °C 1021.9 hPa NNW 6.1 km/h 13.0 km/h 85 % 0.0 mm
13:38 8.4 °C 6.0 °C 1021.9 hPa NNE 6.1 km/h 11.6 km/h 86 % 0.0 mm
13:43 8.5 °C 7.0 °C 1020.9 hPa NNE 6.1 km/h 6.1 km/h 89 % 0.0 mm
13:48 9.2 °C 8.0 °C 1020.9 hPa North 10.5 km/h 11.6 km/h 91 % 0.0 mm
13:53 9.7 °C 9.0 °C 1020.9 hPa North 11.1 km/h 12.6 km/h 91 % 0.0 mm
13:58 10.0 °C 9.0 °C 1020.9 hPa West 11.1 km/h 12.6 km/h 90 % 0.0 mm
14:03 10.1 °C 8.0 °C 1020.9 hPa North 11.9 km/h 11.9 km/h 88 % 0.0 mm
14:08 10.4 °C 8.0 °C 1020.9 hPa NNW 5.0 km/h 14.0 km/h 85 % 0.0 mm
14:13 10.5 °C 8.0 °C 1020.9 hPa NNW 13.0 km/h 14.0 km/h 83 % 0.0 mm
14:18 10.3 °C 7.0 °C 1020.9 hPa NNW 7.9 km/h 20.9 km/h 79 % 0.0 mm
14:23 10.4 °C 7.0 °C 1020.9 hPa WNW 6.9 km/h 20.9 km/h 79 % 0.0 mm
14:28 10.4 °C 7.0 °C 1021.9 hPa North 9.7 km/h 20.1 km/h 80 % 0.0 mm
14:33 10.5 °C 8.0 °C 1021.9 hPa NNW 9.0 km/h 10.1 km/h 80 % 0.0 mm
14:38 10.2 °C 7.0 °C 1021.9 hPa NW 16.9 km/h 16.9 km/h 79 % 0.0 mm
14:40 10.0 °C 6.0 °C 1021.9 hPa NNW 9.3 km/h 16.9 km/h 77 % 0.0 mm
14:45 9.6 °C 6.0 °C 1021.9 hPa North 5.8 km/h 16.9 km/h 77 % 0.0 mm
14:46 9.5 °C 6.0 °C 1021.9 hPa North 5.8 km/h 16.9 km/h 77 % 0.0 mm
14:51 9.2 °C 6.0 °C 1021.9 hPa West 10.1 km/h 10.1 km/h 76 % 0.0 mm
14:56 8.9 °C 6.0 °C 1021.9 hPa North 14.3 km/h 14.3 km/h 78 % 0.0 mm
15:01 8.8 °C 6.0 °C 1021.9 hPa North 7.9 km/h 14.3 km/h 79 % 0.0 mm
15:06 8.8 °C 6.0 °C 1021.9 hPa North 10.5 km/h 11.9 km/h 82 % 0.0 mm
15:11 8.9 °C 6.0 °C 1021.9 hPa NW 5.5 km/h 10.5 km/h 83 % 0.0 mm
15:16 8.9 °C 6.0 °C 1021.9 hPa NNW 11.9 km/h 16.6 km/h 83 % 0.0 mm
15:21 8.8 °C 7.0 °C 1021.9 hPa WNW 13.7 km/h 16.6 km/h 84 % 0.0 mm
15:26 9.1 °C 7.0 °C 1021.9 hPa North 6.4 km/h 14.0 km/h 84 % 0.0 mm
15:31 9.3 °C 7.0 °C 1021.9 hPa NNW 13.7 km/h 13.7 km/h 83 % 0.0 mm
15:37 9.1 °C 6.0 °C 1021.9 hPa NNE 9.3 km/h 13.7 km/h 81 % 0.0 mm
15:42 8.9 °C 6.0 °C 1021.9 hPa NNW 7.6 km/h 13.7 km/h 80 % 0.0 mm
15:47 8.8 °C 6.0 °C 1021.9 hPa NNW 10.5 km/h 10.5 km/h 78 % 0.0 mm
15:52 8.8 °C 6.0 °C 1021.9 hPa NNE 12.6 km/h 17.2 km/h 77 % 0.0 mm
15:53 8.6 °C 6.0 °C 1021.9 hPa NNE 11.9 km/h 17.2 km/h 79 % 0.0 mm
15:58 8.2 °C 5.0 °C 1021.9 hPa NNE 4.7 km/h 17.2 km/h 80 % 0.0 mm
16:03 8.0 °C 5.0 °C 1021.9 hPa North 9.3 km/h 15.4 km/h 80 % 0.3 mm
16:08 7.8 °C 5.0 °C 1021.9 hPa NNW 9.0 km/h 9.7 km/h 83 % 0.5 mm
16:13 7.6 °C 5.0 °C 1021.9 hPa North 5.8 km/h 10.5 km/h 84 % 0.5 mm
16:18 7.4 °C 6.0 °C 1021.9 hPa Calm   13.0 km/h 87 % 0.5 mm
16:23 7.3 °C 6.0 °C 1021.9 hPa NNW 6.9 km/h 16.3 km/h 88 % 0.5 mm
16:28 7.2 °C 6.0 °C 1022.9 hPa NNW 5.8 km/h 16.3 km/h 89 % 0.5 mm
16:33 7.1 °C 6.0 °C 1022.9 hPa NNW 5.8 km/h 8.7 km/h 90 % 0.8 mm
16:39 7.0 °C 6.0 °C 1022.9 hPa NW 5.0 km/h 9.0 km/h 91 % 1.3 mm
16:44 7.0 °C 6.0 °C 1022.9 hPa WNW 6.4 km/h 9.0 km/h 91 % 1.3 mm
16:49 6.9 °C 6.0 °C 1022.9 hPa WNW 3.2 km/h 10.5 km/h 94 % 1.3 mm
16:54 6.9 °C 6.0 °C 1022.9 hPa NW 5.8 km/h 10.5 km/h 94 % 1.3 mm
16:59 6.8 °C 6.0 °C 1022.9 hPa North 7.6 km/h 8.7 km/h 95 % 1.3 mm
17:04 6.8 °C 6.0 °C 1022.9 hPa WNW 9.7 km/h 10.1 km/h 95 % 0.8 mm
17:09 6.8 °C 6.0 °C 1022.9 hPa NW 9.0 km/h 13.0 km/h 96 % 0.5 mm
17:14 6.8 °C 6.0 °C 1022.9 hPa WNW 6.1 km/h 13.7 km/h 96 % 0.5 mm
17:19 6.8 °C 6.0 °C 1022.9 hPa West 3.2 km/h 13.7 km/h 96 % 0.5 mm
17:24 6.7 °C 6.0 °C 1022.9 hPa WNW 6.1 km/h 9.3 km/h 96 % 0.5 mm
17:29 6.7 °C 6.0 °C 1022.9 hPa WNW 9.7 km/h 9.7 km/h 96 % 0.3 mm
17:34 6.7 °C 6.0 °C 1022.9 hPa WNW 6.4 km/h 9.7 km/h 96 % 0.3 mm
17:39 6.7 °C 6.0 °C 1022.9 hPa NE 10.5 km/h 14.3 km/h 96 % 0.3 mm
17:44 6.7 °C 6.0 °C 1022.9 hPa NW 5.5 km/h 14.3 km/h 96 % 0.3 mm
17:49 6.6 °C 6.0 °C 1022.9 hPa Calm   11.9 km/h 96 % 0.3 mm
17:54 6.5 °C 6.0 °C 1022.9 hPa WNW 4.0 km/h 8.7 km/h 96 % 0.5 mm
17:59 6.4 °C 6.0 °C 1021.9 hPa WNW 4.0 km/h 8.7 km/h 96 % 0.5 mm
18:04 6.4 °C 6.0 °C 1021.9 hPa North 8.7 km/h 9.3 km/h 96 % 0.5 mm
18:09 6.5 °C 6.0 °C 1021.9 hPa North 3.2 km/h 12.6 km/h 96 % 0.5 mm
18:14 6.5 °C 6.0 °C 1022.9 hPa WNW 1.4 km/h 12.6 km/h 96 % 0.5 mm
18:19 6.5 °C 6.0 °C 1022.9 hPa North 4.0 km/h 9.3 km/h 97 % 0.5 mm
18:25 6.6 °C 6.0 °C 1022.9 hPa WNW 3.2 km/h 9.3 km/h 97 % 0.5 mm
18:30 6.6 °C 6.0 °C 1022.9 hPa Calm   7.9 km/h 97 % 0.5 mm
18:35 6.5 °C 6.0 °C 1022.9 hPa North 8.7 km/h 8.7 km/h 97 % 0.3 mm
18:40 6.5 °C 6.0 °C 1022.9 hPa WNW 1.4 km/h 10.1 km/h 97 % 0.3 mm
18:45 6.5 °C 6.0 °C 1022.9 hPa West 4.7 km/h 10.1 km/h 97 % 0.3 mm
18:50 6.4 °C 6.0 °C 1022.9 hPa NNW 4.3 km/h 6.4 km/h 97 % 0.0 mm
18:55 6.4 °C 6.0 °C 1022.9 hPa Calm   5.8 km/h 97 % 0.0 mm
19:00 6.4 °C 6.0 °C 1023.9 hPa Calm   3.5 km/h 97 % 0.0 mm
19:05 6.3 °C 6.0 °C 1023.9 hPa Calm   3.5 km/h 97 % 0.3 mm
19:10 6.3 °C 6.0 °C 1023.9 hPa WNW 4.0 km/h 5.5 km/h 97 % 0.3 mm
19:15 6.3 °C 6.0 °C 1022.9 hPa Calm   5.5 km/h 97 % 0.3 mm
19:20 6.2 °C 6.0 °C 1022.9 hPa WNW 3.5 km/h 4.0 km/h 97 % 0.3 mm
19:25 6.1 °C 6.0 °C 1023.9 hPa Calm   5.0 km/h 97 % 0.3 mm
19:30 6.1 °C 6.0 °C 1023.9 hPa Calm   5.0 km/h 97 % 0.3 mm
19:36 6.0 °C 6.0 °C 1023.9 hPa Calm   4.3 km/h 97 % 0.3 mm
19:41 5.9 °C 6.0 °C 1023.9 hPa Calm   1.8 km/h 97 % 0.3 mm
19:46 5.8 °C 6.0 °C 1023.9 hPa Calm   1.8 km/h 97 % 0.3 mm
19:51 5.7 °C 6.0 °C 1023.9 hPa Calm     97 % 0.3 mm
19:56 5.6 °C 6.0 °C 1023.9 hPa Calm     97 % 0.3 mm
20:01 5.5 °C 6.0 °C 1023.9 hPa Calm     97 % 0.3 mm
20:06 5.4 °C 5.0 °C 1023.9 hPa Calm   5.5 km/h 97 % 0.0 mm
20:11 5.3 °C 5.0 °C 1023.9 hPa Calm   5.5 km/h 97 % 0.0 mm
20:16 5.2 °C 5.0 °C 1023.9 hPa Calm   4.7 km/h 97 % 0.0 mm
20:22 5.1 °C 5.0 °C 1023.9 hPa Calm   4.7 km/h 98 % 0.0 mm
20:27 5.1 °C 5.0 °C 1023.9 hPa Calm   4.3 km/h 98 % 0.0 mm
20:32 5.1 °C 5.0 °C 1023.9 hPa Calm   4.3 km/h 98 % 0.0 mm
20:37 5.3 °C 6.0 °C 1023.9 hPa NNW 2.1 km/h 4.0 km/h 98 % 0.0 mm
20:42 5.4 °C 6.0 °C 1023.9 hPa Calm   4.0 km/h 98 % 0.0 mm
20:47 5.4 °C 6.0 °C 1023.9 hPa Calm   2.6 km/h 98 % 0.0 mm
20:52 5.4 °C 6.0 °C 1023.9 hPa Calm   5.0 km/h 98 % 0.0 mm
20:57 5.4 °C 6.0 °C 1023.9 hPa Calm   5.0 km/h 98 % 0.0 mm
21:02 5.3 °C 6.0 °C 1023.9 hPa West 2.1 km/h 4.3 km/h 98 % 0.0 mm
21:07 5.3 °C 6.0 °C 1023.9 hPa Calm   4.0 km/h 98 % 0.0 mm
21:12 5.3 °C 6.0 °C 1023.9 hPa Calm   3.5 km/h 98 % 0.0 mm
21:17 5.3 °C 6.0 °C 1023.9 hPa Calm   1.4 km/h 98 % 0.0 mm
21:22 5.3 °C 6.0 °C 1023.9 hPa Calm   2.6 km/h 98 % 0.0 mm
21:27 5.1 °C 5.0 °C 1024.9 hPa Calm   2.6 km/h 98 % 0.0 mm
21:32 4.7 °C 5.0 °C 1024.9 hPa Calm     98 % 0.0 mm
21:38 4.6 °C 5.0 °C 1024.9 hPa Calm     98 % 0.0 mm
21:43 4.6 °C 5.0 °C 1024.9 hPa Calm     98 % 0.0 mm
21:48 4.6 °C 5.0 °C 1024.9 hPa Calm     98 % 0.0 mm
21:53 4.7 °C 5.0 °C 1024.9 hPa Calm     98 % 0.0 mm
21:58 4.7 °C 5.0 °C 1024.9 hPa Calm     98 % 0.0 mm
22:03 4.7 °C 5.0 °C 1024.9 hPa Calm     98 % 0.0 mm
22:08 4.7 °C 5.0 °C 1024.9 hPa Calm     98 % 0.0 mm
22:13 4.7 °C 5.0 °C 1024.9 hPa Calm     98 % 0.0 mm
22:18 5.0 °C 5.0 °C 1024.9 hPa NE 4.7 km/h 13.7 km/h 98 % 0.0 mm
22:23 5.2 °C 5.0 °C 1024.9 hPa Calm   13.7 km/h 98 % 0.0 mm
22:28 5.4 °C 6.0 °C 1024.9 hPa Calm   1.8 km/h 98 % 0.0 mm
22:33 5.5 °C 6.0 °C 1024.9 hPa Calm     98 % 0.0 mm
22:38 5.5 °C 6.0 °C 1024.9 hPa Calm     98 % 0.0 mm
22:43 5.5 °C 6.0 °C 1024.9 hPa Calm     98 % 0.0 mm
22:48 5.5 °C 6.0 °C 1024.9 hPa Calm     98 % 0.0 mm
22:53 5.5 °C 6.0 °C 1024.9 hPa Calm     98 % 0.0 mm
22:58 5.5 °C 6.0 °C 1024.9 hPa Calm     98 % 0.0 mm
23:04 5.6 °C 6.0 °C 1024.9 hPa Calm     98 % 0.0 mm
23:09 5.6 °C 6.0 °C 1024.9 hPa Calm     98 % 0.0 mm
23:14 5.6 °C 6.0 °C 1024.9 hPa Calm     98 % 0.0 mm
23:19 5.5 °C 6.0 °C 1024.9 hPa Calm     98 % 0.0 mm
23:24 5.5 °C 6.0 °C 1024.9 hPa Calm     98 % 0.0 mm
23:29 5.4 °C 6.0 °C 1024.9 hPa Calm     98 % 0.0 mm
23:34 5.3 °C 6.0 °C 1024.9 hPa Calm     98 % 0.0 mm
23:39 5.2 °C 5.0 °C 1024.9 hPa Calm     98 % 0.0 mm
23:44 5.2 °C 5.0 °C 1024.9 hPa Calm     98 % 0.0 mm
23:49 5.1 °C 5.0 °C 1024.9 hPa Calm     98 % 0.0 mm
23:54 4.9 °C 5.0 °C 1024.9 hPa Calm     98 % 0.0 mm
23:59 4.7 °C 5.0 °C 1024.9 hPa Calm     98 % 0.0 mm
Le Gheer Warneton
Courtoisie de Weather Underground - 2.25 mb

Mise a jour : 17-12-17 08:53:11
Généré par Cumulus 1.9.4 (1099)